Orbital Elements at Epoch 2459200.5 (2020-Dec-17.0) TDB
Reference: JPL 19 (heliocentric ecliptic J2000)
Element | Value | Uncertainty (1-sigma) | Units |
e | .1931737097498218 | 3.9173e-08 | |
a | 2.381604478965381 | 9.7074e-09 | au |
q | 1.921541106606847 | 9.6633e-08 | au |
i | 2.858081166528004 | 3.9986e-06 | deg |
node | 151.1716130793571 | 7.601e-05 | deg |
peri | 237.1681339004149 | 7.6787e-05 | deg |
M | 277.5246917572399 | 1.3976e-05 | deg |
tp | 2459508.056090014560 (2021-Oct-20.55609001) | 5.3446e-05 | TDB |
period | 1342.464729920679 3.68 | 8.2078e-06 2.247e-08 | d yr |
n | .2681634697555675 | 1.6396e-09 | deg/d |
Q | 2.841667851323916 | 1.1583e-08 | au |
|
| | Orbit Determination Parameters
Additional Information
|